• In Austria
  • List of Countries
  • For 7 days
  • Water Temperature
  • Satellite Maps
  • Weather Map
  • News
  • Weather Widgets
  • user-avatar
    Login

    Hourly Weather Algiers

    Today, 18 October, Wednesday

    Time Temperature Precipitation Wind Pressure Humidity
    00:00 +22°C° 0 mm 3 mps 752 mmHg 34%
    01:00 +22°C° 0 mm 3 mps 751 mmHg 33%
    02:00 +22°C° 0 mm 3 mps 751 mmHg 33%
    03:00 +21°C° 0 mm 3 mps 750 mmHg 32%
    04:00 +21°C° 0 mm 3 mps 750 mmHg 33%
    05:00 +21°C° 0 mm 4 mps 750 mmHg 34%
    06:00 +21°C° 0 mm 4 mps 750 mmHg 35%
    07:00 +22°C° 0 mm 4 mps 750 mmHg 32%
    08:00 +25°C° 0 mm 4 mps 750 mmHg 29%
    09:00 +27°C° 0 mm 4 mps 750 mmHg 25%
    10:00 +28°C° 0 mm 3 mps 749 mmHg 23%
    11:00 +29°C° 0 mm 3 mps 749 mmHg 22%
    12:00 +30°C° 0 mm 3 mps 749 mmHg 20%
    13:00 +30°C° 0 mm 3 mps 748 mmHg 20%
    14:00 +30°C° 0 mm 3 mps 748 mmHg 20%
    15:00 +31°C° 0 mm 3 mps 747 mmHg 20%
    16:00 +29°C° 0 mm 3 mps 747 mmHg 24%
    17:00 +27°C° 0 mm 2 mps 747 mmHg 29%
    18:00 +25°C° 0 mm 2 mps 747 mmHg 34%
    19:00 +25°C° 0 mm 3 mps 748 mmHg 38%
    20:00 +23°C° 0 mm 4 mps 748 mmHg 42%
    21:00 +23°C° 0 mm 5 mps 748 mmHg 46%
    22:00 +22°C° 0.3 mm 5 mps 748 mmHg 53%
    23:00 +22°C° 0.3 mm 6 mps 748 mmHg 59%

    Tomorrow, 19 October, Thursday

    Time Temperature Precipitation Wind Pressure Humidity
    00:00 +21°C° 0.3 mm 6 mps 748 mmHg 65%
    01:00 +21°C° 0.4 mm 6 mps 748 mmHg 65%
    02:00 +21°C° 0.4 mm 5 mps 747 mmHg 65%
    03:00 +20°C° 0.4 mm 5 mps 747 mmHg 65%
    04:00 +20°C° 0.1 mm 5 mps 747 mmHg 65%
    05:00 +20°C° 0.1 mm 5 mps 747 mmHg 64%
    06:00 +20°C° 0.1 mm 5 mps 746 mmHg 64%
    07:00 +21°C° 0.6 mm 6 mps 747 mmHg 61%
    08:00 +22°C° 0.6 mm 6 mps 747 mmHg 58%
    09:00 +23°C° 0.6 mm 7 mps 747 mmHg 55%
    10:00 +22°C° 1.6 mm 6 mps 747 mmHg 58%
    11:00 +22°C° 1.6 mm 6 mps 747 mmHg 61%
    12:00 +21°C° 1.6 mm 6 mps 747 mmHg 64%
    13:00 +21°C° 0.7 mm 6 mps 747 mmHg 65%
    14:00 +20°C° 0.7 mm 6 mps 746 mmHg 66%
    15:00 +20°C° 0.7 mm 5 mps 746 mmHg 67%
    16:00 +19°C° 0.2 mm 5 mps 746 mmHg 66%
    17:00 +19°C° 0.2 mm 5 mps 747 mmHg 66%
    18:00 +19°C° 0.2 mm 5 mps 747 mmHg 65%
    19:00 +17°C° 0 mm 5 mps 747 mmHg 67%
    20:00 +18°C° 0 mm 4 mps 747 mmHg 69%
    21:00 +18°C° 0 mm 4 mps 748 mmHg 70%
    22:00 +17°C° 0.1 mm 4 mps 747 mmHg 73%
    23:00 +17°C° 0.1 mm 4 mps 747 mmHg 75%

    Day after tomorrow, 20 October, Friday

    Time Temperature Precipitation Wind Pressure Humidity
    00:00 +17°C° 0.1 mm 4 mps 747 mmHg 78%
    01:00 +17°C° 0.2 mm 4 mps 747 mmHg 76%
    02:00 +17°C° 0.2 mm 4 mps 747 mmHg 74%
    03:00 +16°C° 0.2 mm 5 mps 747 mmHg 73%
    04:00 +16°C° 0.5 mm 5 mps 747 mmHg 71%
    05:00 +16°C° 0.5 mm 5 mps 747 mmHg 68%
    06:00 +16°C° 0.5 mm 5 mps 747 mmHg 66%
    07:00 +19°C° 0.3 mm 5 mps 748 mmHg 63%
    08:00 +20°C° 0.3 mm 5 mps 749 mmHg 60%
    09:00 +22°C° 0.3 mm 5 mps 749 mmHg 56%
    10:00 +22°C° 0.2 mm 6 mps 749 mmHg 55%
    11:00 +23°C° 0.2 mm 6 mps 749 mmHg 53%
    12:00 +24°C° 0.2 mm 6 mps 749 mmHg 51%
    13:00 +24°C° 0.1 mm 6 mps 749 mmHg 53%
    14:00 +23°C° 0.1 mm 6 mps 749 mmHg 54%
    15:00 +23°C° 0.1 mm 6 mps 749 mmHg 56%
    16:00 +22°C° 0.1 mm 5 mps 750 mmHg 62%
    17:00 +21°C° 0.1 mm 4 mps 750 mmHg 68%
    18:00 +20°C° 0.1 mm 3 mps 751 mmHg 74%
    19:00 +20°C° 0.1 mm 3 mps 751 mmHg 75%
    20:00 +20°C° 0.1 mm 3 mps 752 mmHg 77%
    21:00 +19°C° 0.1 mm 2 mps 752 mmHg 79%
    22:00 +19°C° 0 mm 3 mps 752 mmHg 80%
    23:00 +19°C° 0 mm 3 mps 752 mmHg 81%

    21 October, Saturday

    Time Temperature Precipitation Wind Pressure Humidity
    00:00 +19°C° 0 mm 3 mps 752 mmHg 82%
    01:00 +18°C° 0 mm 3 mps 752 mmHg 83%
    02:00 +18°C° 0 mm 3 mps 752 mmHg 83%
    03:00 +18°C° 0 mm 3 mps 752 mmHg 83%
    04:00 +18°C° 0 mm 3 mps 752 mmHg 82%
    05:00 +18°C° 0 mm 3 mps 752 mmHg 81%
    06:00 +17°C° 0 mm 3 mps 753 mmHg 80%
    07:00 +19°C° 0 mm 3 mps 753 mmHg 73%
    08:00 +21°C° 0 mm 3 mps 754 mmHg 65%
    09:00 +23°C° 0 mm 2 mps 754 mmHg 58%
    10:00 +24°C° 0 mm 3 mps 754 mmHg 54%
    11:00 +25°C° 0 mm 3 mps 754 mmHg 50%
    12:00 +26°C° 0 mm 3 mps 753 mmHg 46%
    13:00 +26°C° 0 mm 3 mps 753 mmHg 46%
    14:00 +27°C° 0 mm 3 mps 753 mmHg 46%
    15:00 +27°C° 0 mm 3 mps 752 mmHg 46%
    16:00 +25°C° 0 mm 2 mps 752 mmHg 52%
    17:00 +24°C° 0 mm 2 mps 753 mmHg 58%
    18:00 +23°C° 0 mm 1 mps 753 mmHg 64%
    19:00 +23°C° 0 mm 1 mps 753 mmHg 66%
    20:00 +22°C° 0 mm 1 mps 753 mmHg 68%
    21:00 +22°C° 0 mm 1 mps 753 mmHg 70%
    22:00 +22°C° 0 mm 1 mps 753 mmHg 69%
    23:00 +21°C° 0 mm 1 mps 753 mmHg 68%

    22 October, Sunday

    Time Temperature Precipitation Wind Pressure Humidity
    00:00 +21°C° 0 mm 1 mps 753 mmHg 67%
    01:00 +21°C° 0 mm 1 mps 753 mmHg 67%
    02:00 +21°C° 0 mm 1 mps 752 mmHg 66%
    03:00 +21°C° 0 mm 1 mps 752 mmHg 66%
    04:00 +21°C° 0 mm 1 mps 752 mmHg 65%
    05:00 +21°C° 0 mm 1 mps 752 mmHg 65%
    06:00 +21°C° 0 mm 1 mps 752 mmHg 64%
    07:00 +22°C° 0 mm 1 mps 753 mmHg 58%
    08:00 +24°C° 0 mm 1 mps 753 mmHg 52%
    09:00 +26°C° 0 mm 1 mps 753 mmHg 46%
    10:00 +26°C° 0 mm 1 mps 753 mmHg 44%
    11:00 +27°C° 0 mm 2 mps 753 mmHg 42%
    12:00 +28°C° 0 mm 2 mps 753 mmHg 40%
    13:00 +28°C° 0 mm 2 mps 752 mmHg 42%
    14:00 +27°C° 0 mm 2 mps 752 mmHg 43%
    15:00 +27°C° 0 mm 3 mps 752 mmHg 45%
    16:00 +26°C° 0 mm 2 mps 752 mmHg 50%
    17:00 +25°C° 0 mm 2 mps 752 mmHg 56%
    18:00 +23°C° 0 mm 2 mps 753 mmHg 61%
    19:00 +23°C° 0 mm 2 mps 753 mmHg 64%
    20:00 +21°C° 0 mm 2 mps 753 mmHg 67%
    21:00 +21°C° 0 mm 3 mps 753 mmHg 70%
    22:00 +20°C° 0 mm 3 mps 753 mmHg 73%
    23:00 +20°C° 0 mm 3 mps 753 mmHg 75%

    23 October, Monday

    Time Temperature Precipitation Wind Pressure Humidity
    00:00 +20°C° 0 mm 3 mps 753 mmHg 78%
    01:00 +19°C° 0 mm 3 mps 753 mmHg 79%
    02:00 +19°C° 0 mm 3 mps 753 mmHg 80%
    03:00 +19°C° 0 mm 3 mps 752 mmHg 82%
    04:00 +19°C° 0 mm 3 mps 752 mmHg 82%
    05:00 +18°C° 0 mm 2 mps 752 mmHg 83%
    06:00 +18°C° 0 mm 2 mps 752 mmHg 83%
    07:00 +19°C° 0 mm 3 mps 753 mmHg 77%
    08:00 +21°C° 0 mm 3 mps 753 mmHg 70%
    09:00 +22°C° 0 mm 3 mps 753 mmHg 64%
    10:00 +24°C° 0 mm 3 mps 753 mmHg 59%
    11:00 +25°C° 0 mm 3 mps 752 mmHg 54%
    12:00 +26°C° 0 mm 3 mps 752 mmHg 49%
    13:00 +26°C° 0 mm 4 mps 752 mmHg 50%
    14:00 +26°C° 0 mm 4 mps 752 mmHg 51%
    15:00 +26°C° 0 mm 4 mps 751 mmHg 51%
    16:00 +23°C° 0 mm 4 mps 751 mmHg 56%
    17:00 +22°C° 0 mm 4 mps 751 mmHg 61%
    18:00 +21°C° 0 mm 4 mps 752 mmHg 66%
    19:00 +20°C° 0 mm 3 mps 752 mmHg 67%
    20:00 +20°C° 0 mm 3 mps 752 mmHg 69%
    21:00 +19°C° 0 mm 3 mps 752 mmHg 70%
    22:00 +19°C° 0 mm 3 mps 752 mmHg 69%
    23:00 +18°C° 0 mm 3 mps 752 mmHg 69%
    Show more